This is the latest recevied weather packets stored in our database for station/object EA2AFZ-W. If no packets are shown the sender has not sent any weather packets the latest 10 day(s).
| Time | Temp. | Humidity | Pressure | Rain* | Wind** | Luminosity | Snow |
|---|---|---|---|---|---|---|---|
| 1777115709 | 18.89° C | 52% | 1020 hPa | 0 mm | - | - | - |
| 1777113967 | 18.89° C | 53% | 1020 hPa | 0 mm | - | - | - |
| 1777112164 | 18.33° C | 56% | 1020 hPa | 0 mm | - | - | - |
| 1777110361 | 16.67° C | 56% | 1020 hPa | 0 mm | - | - | - |
| 1777108558 | 16.67° C | 58% | 1020 hPa | 0 mm | - | - | - |
| 1777106756 | 17.22° C | 59% | 1020 hPa | 0 mm | - | - | - |
| 1777104953 | 14.44° C | 65% | 1020 hPa | 0 mm | - | - | - |
| 1777103150 | 14.44° C | 69% | 1020 hPa | 0 mm | - | - | - |
| 1777101347 | 13.89° C | 69% | 1021 hPa | 0 mm | - | - | - |
| 1777099545 | 13.89° C | 63% | 1021 hPa | 0 mm | - | - | - |
| 1777097742 | 13.89° C | 65% | 1020 hPa | 0 mm | - | - | - |
| 1777095939 | 14.44° C | 69% | 1020 hPa | 0 mm | - | - | - |
| 1777094136 | 14.44° C | 69% | 1020 hPa | 0 mm | - | - | - |
| 1777092334 | 14.44° C | 71% | 1020 hPa | 0 mm | - | - | - |
| 1777090532 | 14.44° C | 75% | 1020 hPa | 0 mm | - | - | - |
| 1777088729 | 14.44° C | 75% | 1020 hPa | 0 mm | - | - | - |
| 1777086927 | 13.89° C | 74% | 1020 hPa | 0 mm | - | - | - |
| 1777085124 | 13.33° C | 73% | 1020 hPa | 0 mm | - | - | - |
| 1777083321 | 13.89° C | 72% | 1020 hPa | 0 mm | - | - | - |
| 1777081519 | 14.44° C | 71% | 1020 hPa | 0 mm | - | - | - |
| 1777079715 | 14.44° C | 71% | 1020 hPa | 0 mm | - | - | - |
| 1777077913 | 14.44° C | 71% | 1020 hPa | 0 mm | - | - | - |
| 1777076111 | 14.44° C | 71% | 1020 hPa | 0 mm | - | - | - |
| 1777074308 | 15° C | 70% | 1020 hPa | 0 mm | - | - | - |
| 1777072566 | 15° C | 70% | 1020 hPa | 0 mm | - | - | - |
* Rain latest hour (hover to see other rain measurements)
** Current wind speed in m/s (hover to see current wind gust speed)